Ovda Intl Airport, Israel

9:41 AM IDT on May 24, 2018 (GMT +0300)
Ovda Air Base

Weather History for LLOV - November, 2012

Change the Weather History Date:

Monday, November 12, 2012

  Actual Average Record
Temperature  
Mean Temperature 62 °F -  
Max Temperature 71 °F 66 °F 86 °F (2010)
Min Temperature 53 °F 48 °F 48 °F (2006)
Degree Days  
Heating Degree Days 3    
Growing Degree Days 12 (Base 50)    
Moisture  
Dew Point 49 °F    
Average Humidity 65    
Maximum Humidity 88    
Minimum Humidity 41    
Precipitation  
Precipitation 0.00 in - - ()
Sea Level Pressure  
Sea Level Pressure 30.04 in    
Wind  
Wind Speed 8 mph ()    
Max Wind Speed 21 mph    
Max Gust Speed 31 mph    
Visibility 6.2 miles    
Events Rain    
Averages and records for this station are not official NWS values.
T = Trace of Precipitation, MM = Missing Value Source: Averaged Metar Reports

Daily Weather History Graph

Daily Weather History Graph

Search for Another Location

Airport or City:

Astronomy

Nov. 12, 2012 Rise Set
Actual Time 6:02 AM IST 4:45 PM IST
Civil Twilight 5:37 AM IST 5:10 PM IST
Nautical Twilight 5:08 AM IST 5:39 PM IST
Astronomical Twilight 4:40 AM IST 6:07 PM IST
Moon 4:08 AM IST (11/12) 3:32 PM IST (11/12)
Length of Visible Light 11h 33m
Length of Day
10h 42m
Waning Crescent, 3% of the Moon is Illuminated
Nov 12
Waning Crescent
Nov 14
New
Nov 20
First Quarter
Nov 28
Full
Dec 6
Last Quarter

Hourly Weather History & Observations

Time (IST) Temp. Dew Point Humidity Pressure Visibility Wind Dir Wind Speed Gust Speed Precip Events Conditions
12:50 AM 59.0 °F 44.6 °F 59% 30.06 in - West 5.8 mph - N/A   Clear
1:50 AM 55.4 °F 44.6 °F 67% 30.06 in - Variable 2.3 mph - N/A   Clear
2:50 AM 53.6 °F 44.6 °F 72% 30.06 in - South 5.8 mph - N/A   Clear
3:50 AM 53.6 °F 44.6 °F 72% 30.06 in - SW 3.5 mph - N/A   Clear
4:50 AM 53.6 °F 46.4 °F 77% 30.06 in - WSW 6.9 mph - N/A   Clear
5:50 AM 55.4 °F 48.2 °F 77% 30.06 in 6.2 mi WSW 11.5 mph - N/A   Partly Cloudy
6:50 AM 55.4 °F 48.2 °F 77% 30.06 in 6.2 mi SW 10.4 mph - N/A   Partly Cloudy
7:50 AM 60.8 °F 50.0 °F 68% 30.06 in - West 9.2 mph - N/A   Clear
8:50 AM 62.6 °F 50.0 °F 63% 30.09 in 6.2 mi WSW 10.4 mph - N/A   Partly Cloudy
9:50 AM 66.2 °F 48.2 °F 52% 30.06 in 6.2 mi WSW 8.1 mph - N/A   Partly Cloudy
10:50 AM 66.2 °F 48.2 °F 52% 30.06 in 6.2 mi West 5.8 mph - N/A   Mostly Cloudy
11:50 AM 69.8 °F 48.2 °F 46% 30.04 in 6.2 mi NW 8.1 mph - N/A   Mostly Cloudy
12:50 PM 69.8 °F 48.2 °F 46% 30.01 in 6.2 mi WNW 9.2 mph - N/A   Mostly Cloudy
1:50 PM 71.6 °F 46.4 °F 41% 30.01 in 6.2 mi WNW 8.1 mph - N/A   Partly Cloudy
2:50 PM 68.0 °F 46.4 °F 46% 29.98 in 6.2 mi WNW 9.2 mph - N/A   Partly Cloudy
3:50 PM 69.8 °F 48.2 °F 46% 30.01 in 6.2 mi WNW 9.2 mph - N/A   Scattered Clouds
4:50 PM 68.0 °F 46.4 °F 46% 30.01 in 6.2 mi WNW 13.8 mph - N/A   Mostly Cloudy
5:50 PM 64.4 °F 51.8 °F 64% 30.01 in 6.2 mi NNW 20.7 mph - N/A   Mostly Cloudy
5:58 PM 62.6 °F 51.8 °F 68% 30.04 in 6.2 mi NW 19.6 mph 31.1 mph N/A   Mostly Cloudy
6:28 PM 62.6 °F 53.6 °F 72% 30.04 in 6.2 mi NW 13.8 mph - N/A   Mostly Cloudy
6:50 PM 62.6 °F 53.6 °F 72% 30.04 in 6.2 mi NNW 13.8 mph - N/A   Mostly Cloudy
7:50 PM 60.8 °F 53.6 °F 77% 30.06 in 6.2 mi WNW 13.8 mph - N/A Rain Light Rain
8:50 PM 60.8 °F 53.6 °F 77% 30.06 in 6.2 mi NW 9.2 mph - N/A Rain Light Rain
9:50 PM 59.0 °F 55.4 °F 88% 30.06 in - West 6.9 mph - N/A   Clear
10:50 PM 59.0 °F 55.4 °F 88% 30.06 in 6.2 mi WNW 10.4 mph - N/A   Mostly Cloudy
11:50 PM 59.0 °F 55.4 °F 88% 30.04 in 6.2 mi NW 5.8 mph - N/A   Scattered Clouds